Waarnemingen

Advertentie
Mijn weer
Startbyn, Zweden (2181): temperatuur & dauwpunt: 16.01.2021 23:00:00 - 22.01.2021 23:00:00 (CET)Startbyn, Zweden (2181): windsnelheid & windstoten: 16.01.2021 23:00:00 - 22.01.2021 23:00:00 (CET)Startbyn, Zweden (2181): windrichting: 16.01.2021 23:00:00 - 22.01.2021 23:00:00 (CET)Startbyn, Zweden (2181): luchtdruk: 16.01.2021 23:00:00 - 22.01.2021 23:00:00 (CET)Startbyn, Zweden (2181): zicht: 16.01.2021 23:00:00 - 22.01.2021 23:00:00 (CET)Startbyn, Zweden (2181): neerslag: 16.01.2021 23:00:00 - 22.01.2021 23:00:00 (CET)
Datum & Tijd tt [°C] td [°C] ff [km/u] ff [kn] fx [km/u] fx [kn] dd ppp [hPa] vv [km] rr [mm]
22.01.2021 23:00:00 - - - - - - - - - -
22.01.2021 22:00:00 -12,3 -15,0 11 6 28 15 NO 998,6 9 0,0
22.01.2021 21:00:00 -12,6 -15,3 10 5 30 16 NO 999,1 16 0,0
22.01.2021 20:00:00 -12,6 -15,5 11 6 28 15 ONO 1000,0 14 0,0
22.01.2021 19:00:00 -12,4 -15,4 12 7 30 16 ONO 1000,2 11 0,0
22.01.2021 18:00:00 -12,2 -14,9 11 6 34 18 O 1000,1 7 0,0
22.01.2021 17:00:00 -12,0 -14,6 10 5 25 14 O 1000,3 2,9 0,0
22.01.2021 16:00:00 -11,8 -14,5 13 7 34 18 ONO 1000,1 6 0,0
22.01.2021 15:00:00 -11,7 -14,3 10 5 27 15 ONO 1000,2 2,9 0,0
22.01.2021 14:00:00 -11,4 -13,9 10 5 25 14 ONO 1000,3 5 0,0
22.01.2021 13:00:00 -11,1 -13,4 9 5 26 14 ONO 1000,4 3,2 0,0
22.01.2021 12:00:00 -11,0 -13,2 8 4 24 13 ONO 1000,3 2,3 0,1
22.01.2021 11:00:00 -10,9 -12,9 7 4 20 11 O 1000,3 2,5 0,1
22.01.2021 10:00:00 -10,9 -12,8 8 4 18 10 O 1000,1 2,7 0,5
22.01.2021 09:00:00 -11,1 -12,8 9 5 23 12 ONO 999,5 1,6 0,5
22.01.2021 08:00:00 -11,0 -13,2 11 6 25 13 O 999,5 2,2 0,7
22.01.2021 07:00:00 -11,0 -13,2 9 5 34 19 O 998,9 1,7 0,1
22.01.2021 06:00:00 -10,9 -12,9 9 5 31 17 O 998,7 1,7 0,2
22.01.2021 05:00:00 -10,9 -12,8 10 5 28 15 O 998,9 1,3 0,5
22.01.2021 04:00:00 -11,1 -12,8 11 6 31 17 O 999,0 0,6 1,1
22.01.2021 03:00:00 -11,2 -12,9 12 7 34 18 ONO 999,4 0,5 1,5
22.01.2021 02:00:00 -11,2 -12,9 11 6 38 20 O 999,9 0,5 0,9
22.01.2021 01:00:00 -11,3 -13,3 13 7 36 19 ONO 1000,6 0,8 0,7
22.01.2021 00:00:00 -11,5 -13,4 13 7 36 20 O 1001,6 0,7 0,6
21.01.2021 23:00:00 -11,6 -13,9 16 8 37 20 O 1002,7 1,7 0,5
21.01.2021 22:00:00 -11,9 -14,0 13 7 35 19 ONO 1003,8 1,1 0,4
21.01.2021 21:00:00 -12,0 -14,3 14 7 29 16 ONO 1005,1 1,9 0,4
21.01.2021 20:00:00 -12,0 -14,3 12 7 33 18 ONO 1006,1 2,5 0,2
21.01.2021 19:00:00 -12,1 -14,4 10 6 26 14 ONO 1006,9 2,5 0,1
21.01.2021 18:00:00 -11,9 -14,2 11 6 25 13 ONO 1007,7 4,1 0,1
21.01.2021 17:00:00 -11,8 -14,0 11 6 28 15 ONO 1008,2 2,6 0,1
21.01.2021 16:00:00 -11,6 -13,5 12 6 24 13 ONO 1008,7 1,4 0,0
21.01.2021 15:00:00 -11,5 -13,5 12 7 25 14 ONO 1009,3 1,4 0,0
21.01.2021 14:00:00 -11,4 -13,6 9 5 23 13 ONO 1009,8 1,9 0,0
21.01.2021 13:00:00 -11,3 -13,5 11 6 25 14 ONO 1010,1 1,9 0,0
21.01.2021 12:00:00 -11,4 -13,4 7 4 17 9 ONO 1010,5 2,2 0,0
21.01.2021 11:00:00 -11,5 -13,7 6 3 18 10 ONO 1011,2 3,1 0,0
21.01.2021 10:00:00 -11,5 -13,6 8 5 18 10 ONO 1011,4 2,3 0,0
21.01.2021 09:00:00 -11,3 -13,3 5 3 20 11 ONO 1011,5 4,3 0,0
21.01.2021 08:00:00 -11,4 -13,6 7 4 16 9 ONO 1011,6 7 0,0
21.01.2021 07:00:00 -11,4 -13,4 4 2 16 8 ONO 1011,9 3,9 0,1
21.01.2021 06:00:00 -11,4 -13,4 6 3 18 10 ONO 1011,9 6 0,1
21.01.2021 05:00:00 -11,5 -13,4 5 3 12 7 NO 1012,0 2,6 0,0
21.01.2021 04:00:00 -11,9 -13,7 5 3 13 7 NO 1012,0 2,6 0,0
21.01.2021 03:00:00 -11,9 -13,9 5 3 16 8 ONO 1011,9 1,9 0,0
21.01.2021 02:00:00 -11,3 -13,2 5 3 14 8 NNO 1012,1 2,8 0,0
21.01.2021 01:00:00 -11,0 -12,9 6 3 15 8 NO 1012,5 3,0 0,0
21.01.2021 00:00:00 -11,1 -13,1 6 3 18 10 NO 1012,9 2,9 0,0
20.01.2021 23:00:00 -11,3 -13,3 5 3 12 6 NNO 1012,9 9 0,0
20.01.2021 22:00:00 -11,7 -13,8 5 3 14 8 NNO 1013,1 50 0,0
20.01.2021 21:00:00 -11,8 -13,8 6 4 19 10 NNO 1013,2 50 0,0
20.01.2021 20:00:00 -11,6 -13,6 5 3 13 7 NNO 1013,0 50 0,0
20.01.2021 19:00:00 -11,8 -13,5 3 2 11 6 N 1013,2 33 0,0
20.01.2021 18:00:00 -11,4 -13,3 6 3 15 8 NNO 1013,1 4,3 0,0
20.01.2021 17:00:00 -12,2 -13,9 3 2 8 5 NNW 1013,2 18 0,0
20.01.2021 16:00:00 -12,1 -14,0 4 2 10 5 N 1013,3 42 0,0
20.01.2021 15:00:00 -11,9 -13,8 5 3 11 6 NNO 1013,0 9 0,0
20.01.2021 14:00:00 -12,1 -14,0 3 2 10 5 N 1013,0 48 0,0
20.01.2021 13:00:00 -12,0 -13,7 3 2 10 5 N 1013,1 42 0,0
20.01.2021 12:00:00 -12,4 -14,0 3 2 7 4 N 1013,3 50 0,0
20.01.2021 11:00:00 -13,1 -14,8 3 1 6 4 N 1013,5 50 0,0
20.01.2021 10:00:00 -13,6 -15,4 2 1 8 4 N 1013,5 50 0,0
20.01.2021 09:00:00 -14,1 -15,9 2 1 7 4 NNW 1013,6 1,9 0,0
20.01.2021 08:00:00 -14,4 -15,9 4 2 6 4 N 1013,5 3,8 0,0
20.01.2021 07:00:00 -14,9 -16,9 2 1 8 4 N 1013,3 50 0,0
20.01.2021 06:00:00 -14,4 -16,4 3 2 6 3 N 1013,4 50 0,0
20.01.2021 05:00:00 -13,2 -14,9 2 1 7 4 N 1013,3 24 0,0
20.01.2021 04:00:00 -13,0 -14,7 3 2 8 5 N 1013,2 50 0,0
20.01.2021 03:00:00 -11,6 -13,2 3 1 8 4 N 1013,0 31 0,0
20.01.2021 02:00:00 -11,3 -12,9 0 0 6 3 N 1013,0 8 0,0
20.01.2021 01:00:00 -11,4 -12,8 0 0 5 3 N 1013,1 30 0,0
20.01.2021 00:00:00 -11,5 -12,9 2 1 6 4 N 1013,1 7 0,0
19.01.2021 23:00:00 -11,6 -13,0 0 0 6 3 N 1012,9 50 0,0
19.01.2021 22:00:00 -11,9 -13,4 0 0 6 3 N 1012,7 50 0,0
19.01.2021 21:00:00 -12,0 -13,4 2 1 6 3 N 1012,5 26 0,0
19.01.2021 20:00:00 -12,8 -14,4 - - 7 4 N 1012,5 30 0,0
19.01.2021 19:00:00 -13,4 -15,1 - - 5 3 N 1012,3 50 0,0
19.01.2021 18:00:00 -14,1 -15,9 0 0 4 2 N 1012,1 44 0,0
19.01.2021 17:00:00 -14,4 -16,2 0 0 3 2 N 1011,9 34 0,0
19.01.2021 16:00:00 -15,1 -17,0 0 0 3 2 N 1011,8 21 0,0
19.01.2021 15:00:00 -15,7 -17,6 0 0 5 3 N 1011,8 2,2 0,0
19.01.2021 14:00:00 -16,3 -18,2 0 0 3 2 N 1011,5 3,9 0,0
19.01.2021 13:00:00 -16,8 -18,9 0 0 4 2 N 1011,5 4,1 0,0
19.01.2021 12:00:00 -17,7 -19,6 0 0 4 2 N 1011,6 11 0,0
19.01.2021 11:00:00 -18,7 -20,9 0 0 4 2 N 1011,6 17 0,0
19.01.2021 10:00:00 -19,3 -21,4 0 0 3 2 N 1011,3 14 0,0
19.01.2021 09:00:00 -20,8 -23,3 0 0 1 1 N 1010,9 43 0,0
19.01.2021 08:00:00 -21,2 -23,9 0 0 1 1 N 1010,5 50 0,0
19.01.2021 07:00:00 -21,3 -23,8 0 0 2 1 N 1010,2 32 0,0
19.01.2021 06:00:00 -21,2 -23,6 0 0 2 1 N 1010,0 50 0,0
19.01.2021 05:00:00 -23,0 -25,6 0 0 1 1 N 1009,8 50 0,0
19.01.2021 04:00:00 -22,4 -25,2 0 0 2 1 N 1009,5 50 0,0
19.01.2021 03:00:00 -21,4 -23,9 0 0 2 1 N 1009,5 50 0,0
19.01.2021 02:00:00 -21,1 -23,6 0 0 3 1 N 1009,3 33 0,0
19.01.2021 01:00:00 -20,3 -22,7 0 0 2 1 N 1009,2 50 0,0
19.01.2021 00:00:00 -19,3 -21,6 0 0 2 1 N 1009,3 46 0,0
18.01.2021 23:00:00 -18,3 -20,6 0 0 4 2 N 1009,1 50 0,0
18.01.2021 22:00:00 -16,8 -18,7 0 0 4 2 N 1009,0 11 0,0
18.01.2021 21:00:00 -15,6 -17,5 0 0 5 3 N 1008,9 10 0,0
18.01.2021 20:00:00 -14,8 -16,6 0 0 4 2 N 1008,4 7 0,0
18.01.2021 19:00:00 -14,5 -16,2 0 0 9 5 N 1008,3 6 0,0
18.01.2021 18:00:00 -13,5 -15,1 4 2 12 6 NW 1008,0 4,7 0,0
18.01.2021 17:00:00 -12,8 -14,2 4 2 10 5 WNW 1008,1 6 0,0
18.01.2021 16:00:00 -12,6 -14,1 4 2 9 5 NW 1008,2 7 0,0
18.01.2021 15:00:00 -12,7 -14,0 0 0 8 4 N 1008,2 16 0,0
18.01.2021 14:00:00 -13,1 -14,4 0 0 4 2 N 1008,3 6 0,0
18.01.2021 13:00:00 -13,5 -15,1 0 0 8 4 N 1008,3 14 0,0
18.01.2021 12:00:00 -14,2 -16,2 2 1 5 3 NNW 1008,7 50 0,0
18.01.2021 11:00:00 -14,6 -16,6 0 0 5 3 N 1009,1 50 0,0
18.01.2021 10:00:00 -15,2 -17,2 0 0 6 3 N 1009,3 50 0,0
18.01.2021 09:00:00 -15,7 -17,6 3 1 6 3 NNW 1009,3 50 0,0
18.01.2021 08:00:00 -16,3 -18,2 0 0 3 1 N 1009,2 50 0,0
18.01.2021 07:00:00 -17,1 -19,2 0 0 3 2 N 1009,6 50 0,0
18.01.2021 06:00:00 -18,0 -20,5 2 1 6 4 ZO 1010,0 50 0,0
18.01.2021 05:00:00 -18,2 -20,2 2 1 8 4 NW 1009,9 50 0,0
18.01.2021 04:00:00 -19,6 -21,6 2 1 6 3 NNW 1010,2 50 0,0
18.01.2021 03:00:00 -23,2 -25,7 0 0 3 2 N 1010,6 29 0,0
18.01.2021 02:00:00 -23,6 -26,4 0 0 3 1 N 1010,8 50 0,0
18.01.2021 01:00:00 -23,1 -25,9 0 0 4 2 N 1011,0 50 0,0
18.01.2021 00:00:00 -22,8 -25,4 0 0 3 2 N 1011,4 50 0,0
17.01.2021 23:00:00 -22,6 -25,2 0 0 2 1 N 1011,7 17 0,0
17.01.2021 22:00:00 -22,2 -24,8 0 0 3 2 N 1011,9 50 0,0
17.01.2021 21:00:00 -21,9 -24,6 0 0 3 1 N 1012,1 50 0,0
17.01.2021 20:00:00 -21,4 -23,8 0 0 3 2 N 1012,2 50 0,0
17.01.2021 19:00:00 -21,2 -23,7 3 1 4 2 NNW 1012,4 25 0,0
17.01.2021 18:00:00 -20,2 -22,2 0 0 3 2 N 1012,3 50 0,0
17.01.2021 17:00:00 -20,3 -22,8 0 0 2 1 N 1012,4 50 0,0
17.01.2021 16:00:00 -19,7 -22,2 0 0 2 1 N 1012,3 50 0,0
17.01.2021 15:00:00 -18,9 -21,2 2 1 4 2 WZW 1012,6 50 0,0
17.01.2021 14:00:00 -18,9 -21,5 0 0 4 2 N 1012,8 50 0,0
17.01.2021 13:00:00 -17,7 -20,0 0 0 4 2 N 1013,0 50 0,0
17.01.2021 12:00:00 -16,8 -19,1 0 0 6 4 N 1013,4 50 0,0
17.01.2021 11:00:00 -17,4 -19,4 4 2 7 4 NW 1013,8 50 0,0
17.01.2021 10:00:00 -18,3 -20,5 - - 3 1 N 1013,6 50 0,0
17.01.2021 09:00:00 -19,7 -22,0 - - 2 1 N 1013,7 50 0,0
17.01.2021 08:00:00 -20,7 -23,1 - - 3 1 N 1013,8 50 0,0
17.01.2021 07:00:00 -20,9 -23,3 - - 1 1 N 1013,9 50 0,0
17.01.2021 06:00:00 -21,4 -24,1 - - 4 2 N 1014,3 50 0,0
17.01.2021 05:00:00 -20,5 -22,6 0 0 5 3 N 1014,5 50 0,0
17.01.2021 04:00:00 -20,5 -22,9 0 0 3 1 N 1014,8 50 0,0
17.01.2021 03:00:00 -20,1 -22,5 0 0 1 1 N 1015,3 43 0,0
17.01.2021 02:00:00 -19,6 -22,2 0 0 3 2 N 1015,6 16 0,0
17.01.2021 01:00:00 -18,9 -21,1 0 0 3 2 N 1016,0 12 0,0
17.01.2021 00:00:00 -19,0 -21,2 0 0 5 3 N 1016,6 20 0,0
16.01.2021 23:00:00 -17,8 -20,1 0 0 3 2 N 1017,1 39 0,0

tt = temperatuur
td = dauwpunt
ff = windsnelheid
fx = windstoten
dd = windrichting
ppp = luchtdruk
vv = zicht
rr = neerslag

Weerstations in de omgeving